| time (UTC) | temp F | wind direction | speed knots | gust knots | rain 1hr in | rain 24hr in | rain mn in | humidity % | barometer mb |
| 20260504100527 | 62 | 316 | 1.7 | 11.3 | 0.00 | 0.00 | 0.00 | 53 | 1015.0 |
| 20260504081548 | 57 | 274 | 2.6 | 5.2 | 0.00 | 0.00 | 0.00 | 73 | 1014.6 |
| 20260504081029 | 56 | 254 | 0.9 | 4.3 | 0.00 | 0.00 | 0.00 | 75 | 1014.6 |
| 20260504080525 | 55 | 242 | 1.7 | 5.2 | 0.00 | 0.00 | 0.00 | 77 | 1014.6 |
| 20260504080104 | 55 | 252 | 0.9 | 6.1 | 0.00 | 0.00 | 0.00 | 78 | 1014.6 |
| 20260504050531 | 48 | 0 | 0.0 | 4.3 | 0.00 | 0.00 | 0.00 | 86 | 1013.4 |
| 20260504045525 | 48 | 246 | 0.0 | 2.6 | 0.00 | 0.00 | 0.00 | 86 | 1013.4 |
| 20260504045024 | 48 | 252 | 0.0 | 3.5 | 0.00 | 0.00 | 0.00 | 85 | 1013.4 |
| 20260504044542 | 48 | 0 | 0.0 | 3.5 | 0.00 | 0.00 | 0.00 | 85 | 1013.5 |
| 20260504044025 | 48 | 256 | 0.0 | 2.6 | 0.00 | 0.00 | 0.00 | 85 | 1013.5 |
| 20260504043524 | 48 | 0 | 0.0 | 0.0 | 0.00 | 0.00 | 0.00 | 85 | 1013.6 |
| 20260504043042 | 48 | 0 | 0.0 | 0.0 | 0.00 | 0.00 | 0.00 | 85 | 1013.6 |
| 20260504042525 | 48 | 0 | 0.0 | 0.0 | 0.00 | 0.00 | 0.00 | 85 | 1013.7 |
| 20260504042024 | 48 | 0 | 0.0 | 0.0 | 0.00 | 0.00 | 0.00 | 85 | 1013.7 |
| 20260504041545 | 48 | 0 | 0.0 | 2.6 | 0.00 | 0.00 | 0.00 | 84 | 1013.6 |
| 20260504041103 | 48 | 0 | 0.0 | 2.6 | 0.00 | 0.00 | 0.00 | 84 | 1013.6 |
| 20260504040525 | 49 | 0 | 0.0 | 2.6 | 0.00 | 0.00 | 0.00 | 84 | 1013.6 |
| 20260504040107 | 49 | 0 | 0.0 | 3.5 | 0.00 | 0.00 | 0.00 | 84 | 1013.5 |
| 20260504035528 | 49 | 0 | 0.0 | 3.5 | 0.00 | 0.00 | 0.00 | 84 | 1013.7 |
| 20260504035028 | 49 | 0 | 0.9 | 3.5 | 0.00 | 0.00 | 0.00 | 84 | 1013.5 |
| 20260504034542 | 49 | 0 | 0.9 | 2.6 | 0.00 | 0.00 | 0.00 | 84 | 1013.6 |
| 20260504034024 | 49 | 253 | 0.0 | 2.6 | 0.00 | 0.00 | 0.00 | 84 | 1013.6 |
| 20260504033525 | 50 | 0 | 0.0 | 3.5 | 0.00 | 0.00 | 0.00 | 83 | 1013.6 |
| 20260504033046 | 50 | 252 | 0.9 | 3.5 | 0.00 | 0.00 | 0.00 | 84 | 1013.7 |
| 20260504032528 | 50 | 254 | 0.0 | 3.5 | 0.00 | 0.00 | 0.00 | 83 | 1013.6 |
| 20260504032027 | 50 | 267 | 0.9 | 3.5 | 0.00 | 0.00 | 0.00 | 83 | 1013.7 |
| 20260504031551 | 50 | 0 | 0.0 | 0.0 | 0.00 | 0.00 | 0.00 | 83 | 1013.7 |
| 20260504031024 | 50 | 0 | 0.0 | 3.5 | 0.00 | 0.00 | 0.00 | 83 | 1013.6 |
| 20260504030528 | 50 | 0 | 0.0 | 3.5 | 0.00 | 0.00 | 0.00 | 83 | 1013.7 |
| 20260504030041 | 50 | 267 | 0.9 | 5.2 | 0.00 | 0.00 | 0.00 | 83 | 1013.8 |
| 20260504025526 | 50 | 250 | 1.7 | 7.0 | 0.00 | 0.00 | 0.00 | 82 | 1013.6 |
| 20260504025026 | 51 | 237 | 2.6 | 7.0 | 0.00 | 0.00 | 0.00 | 82 | 1013.6 |
| 20260504024542 | 51 | 208 | 1.7 | 6.1 | 0.00 | 0.00 | 0.00 | 82 | 1013.6 |
| 20260504024030 | 51 | 218 | 1.7 | 6.1 | 0.00 | 0.00 | 0.00 | 82 | 1013.6 |
| 20260504023525 | 51 | 235 | 0.9 | 4.3 | 0.00 | 0.00 | 0.00 | 82 | 1013.6 |
| 20260504023054 | 51 | 243 | 0.9 | 4.3 | 0.00 | 0.00 | 0.00 | 81 | 1013.5 |
| 20260504022525 | 51 | 230 | 2.6 | 6.1 | 0.00 | 0.00 | 0.00 | 81 | 1013.5 |
| 20260504022025 | 51 | 219 | 2.6 | 6.1 | 0.00 | 0.00 | 0.00 | 81 | 1013.7 |
| 20260504021542 | 51 | 0 | 2.6 | 5.2 | 0.00 | 0.00 | 0.00 | 81 | 1013.6 |
| 20260504021024 | 51 | 213 | 0.9 | 4.3 | 0.00 | 0.00 | 0.00 | 81 | 1013.6 |
| 20260504020526 | 51 | 0 | 0.0 | 4.3 | 0.00 | 0.00 | 0.00 | 81 | 1013.6 |
| 20260504020041 | 51 | 240 | 1.7 | 4.3 | 0.00 | 0.00 | 0.00 | 81 | 1013.6 |
| 20260504015525 | 51 | 225 | 2.6 | 5.2 | 0.00 | 0.00 | 0.00 | 81 | 1013.7 |
| 20260504015025 | 51 | 218 | 1.7 | 5.2 | 0.00 | 0.00 | 0.00 | 81 | 1013.7 |
| 20260504014558 | 51 | 226 | 2.6 | 5.2 | 0.00 | 0.00 | 0.00 | 81 | 1013.6 |
| 20260504014024 | 51 | 231 | 1.7 | 4.3 | 0.00 | 0.00 | 0.00 | 81 | 1013.5 |
| 20260504013526 | 51 | 224 | 0.9 | 5.2 | 0.00 | 0.00 | 0.00 | 81 | 1013.7 |
| 20260504013042 | 51 | 216 | 1.7 | 5.2 | 0.00 | 0.00 | 0.00 | 81 | 1013.7 |
| 20260504012527 | 52 | 242 | 2.6 | 5.2 | 0.00 | 0.00 | 0.00 | 81 | 1013.8 |
| 20260504012027 | 52 | 231 | 0.9 | 3.5 | 0.00 | 0.00 | 0.00 | 81 | 1013.7 |
| 20260504011546 | 52 | 237 | 0.0 | 4.3 | 0.00 | 0.00 | 0.00 | 81 | 1013.8 |
| 20260504011025 | 52 | 0 | 0.0 | 7.0 | 0.00 | 0.00 | 0.00 | 81 | 1013.8 |
| 20260504010528 | 52 | 234 | 2.6 | 7.0 | 0.00 | 0.00 | 0.00 | 81 | 1013.8 |
| 20260504010053 | 52 | 240 | 2.6 | 4.3 | 0.00 | 0.00 | 0.00 | 81 | 1013.9 |
| 20260504005530 | 52 | 225 | 1.7 | 4.3 | 0.00 | 0.00 | 0.00 | 81 | 1013.9 |
| 20260504005031 | 52 | 216 | 0.9 | 4.3 | 0.00 | 0.00 | 0.00 | 81 | 1013.9 |
| 20260504004549 | 52 | 215 | 2.6 | 4.3 | 0.00 | 0.00 | 0.00 | 81 | 1013.8 |
| 20260504004027 | 52 | 225 | 1.7 | 4.3 | 0.00 | 0.00 | 0.00 | 80 | 1013.8 |
| 20260504003532 | 52 | 224 | 1.7 | 4.3 | 0.00 | 0.00 | 0.00 | 80 | 1013.9 |
| 20260504003047 | 52 | 226 | 0.9 | 3.5 | 0.00 | 0.00 | 0.00 | 80 | 1013.8 |
| 20260504002528 | 53 | 249 | 0.9 | 3.5 | 0.00 | 0.00 | 0.00 | 79 | 1013.7 |
| 20260504002028 | 53 | 0 | 0.0 | 3.5 | 0.00 | 0.00 | 0.00 | 79 | 1013.8 |
| 20260504001555 | 53 | 248 | 0.9 | 3.5 | 0.00 | 0.00 | 0.00 | 79 | 1013.8 |
| 20260504001028 | 53 | 246 | 1.7 | 3.5 | 0.00 | 0.00 | 0.00 | 79 | 1013.8 |
| 20260504000530 | 54 | 0 | 0.0 | 4.3 | 0.00 | 0.00 | 0.00 | 79 | 1013.9 |
| 20260504000101 | 54 | 231 | 1.7 | 5.2 | 0.00 | 0.00 | 0.00 | 79 | 1014.0 |
| 20260503235529 | 54 | 198 | 1.7 | 5.2 | 0.00 | 0.00 | 0.00 | 79 | 1014.1 |
| 20260503235029 | 54 | 194 | 1.7 | 4.3 | 0.00 | 0.00 | 0.00 | 78 | 1014.0 |
| 20260503234545 | 54 | 0 | 1.7 | 3.5 | 0.00 | 0.00 | 0.00 | 78 | 1014.0 |
| 20260503234029 | 54 | 232 | 0.9 | 6.1 | 0.00 | 0.00 | 0.00 | 78 | 1014.1 |
| 20260503233528 | 55 | 244 | 1.7 | 6.1 | 0.00 | 0.00 | 0.00 | 78 | 1014.1 |
| 20260503233044 | 55 | 237 | 2.6 | 6.1 | 0.00 | 0.00 | 0.00 | 78 | 1014.0 |
| 20260503232530 | 55 | 258 | 1.7 | 7.0 | 0.00 | 0.00 | 0.00 | 77 | 1014.0 |
| 20260503232027 | 55 | 254 | 2.6 | 7.0 | 0.00 | 0.00 | 0.00 | 77 | 1014.0 |
| 20260503231549 | 55 | 234 | 2.6 | 4.3 | 0.00 | 0.00 | 0.00 | 76 | 1014.1 |
| 20260503231028 | 55 | 250 | 1.7 | 6.1 | 0.00 | 0.00 | 0.00 | 76 | 1014.0 |
| 20260503230527 | 55 | 239 | 1.7 | 6.1 | 0.00 | 0.00 | 0.00 | 75 | 1014.0 |
| 20260503230049 | 56 | 233 | 1.7 | 6.1 | 0.00 | 0.00 | 0.00 | 75 | 1014.1 |
| 20260503225525 | 56 | 248 | 1.7 | 6.1 | 0.00 | 0.00 | 0.00 | 74 | 1013.9 |
| 20260503225033 | 56 | 222 | 1.7 | 6.1 | 0.00 | 0.00 | 0.00 | 74 | 1013.9 |
| 20260503224547 | 57 | 248 | 1.7 | 7.0 | 0.00 | 0.00 | 0.00 | 73 | 1014.0 |
| 20260503224028 | 57 | 230 | 2.6 | 7.0 | 0.00 | 0.00 | 0.00 | 73 | 1014.0 |
| 20260503223531 | 57 | 254 | 1.7 | 5.2 | 0.00 | 0.00 | 0.00 | 73 | 1014.1 |
| 20260503223042 | 57 | 242 | 0.9 | 5.2 | 0.00 | 0.00 | 0.00 | 72 | 1014.1 |
| 20260503222527 | 58 | 263 | 0.0 | 8.7 | 0.00 | 0.00 | 0.00 | 72 | 1013.9 |
| 20260503222027 | 58 | 243 | 0.9 | 8.7 | 0.00 | 0.00 | 0.00 | 71 | 1014.0 |
| 20260503221549 | 58 | 290 | 4.3 | 8.7 | 0.00 | 0.00 | 0.00 | 71 | 1014.1 |
| 20260503221028 | 58 | 277 | 3.5 | 7.8 | 0.00 | 0.00 | 0.00 | 71 | 1014.0 |
| 20260503220530 | 58 | 277 | 1.7 | 9.6 | 0.00 | 0.00 | 0.00 | 70 | 1013.9 |
| 20260503220052 | 58 | 285 | 4.3 | 9.6 | 0.00 | 0.00 | 0.00 | 70 | 1014.0 |
| 20260503215528 | 59 | 294 | 2.6 | 8.7 | 0.00 | 0.00 | 0.00 | 70 | 1014.0 |
| 20260503215024 | 59 | 278 | 6.1 | 10.4 | 0.00 | 0.00 | 0.00 | 70 | 1013.9 |
| 20260503214544 | 59 | 255 | 6.1 | 10.4 | 0.00 | 0.00 | 0.00 | 70 | 1014.0 |
| 20260503214025 | 59 | 300 | 3.5 | 8.7 | 0.00 | 0.00 | 0.00 | 70 | 1014.1 |
| 20260503213525 | 59 | 285 | 4.3 | 8.7 | 0.00 | 0.00 | 0.00 | 70 | 1013.9 |
| 20260503213042 | 59 | 279 | 3.5 | 7.0 | 0.00 | 0.00 | 0.00 | 69 | 1013.9 |
| 20260503212525 | 59 | 290 | 3.5 | 7.0 | 0.00 | 0.00 | 0.00 | 69 | 1013.8 |
| 20260503212027 | 59 | 297 | 2.6 | 7.0 | 0.00 | 0.00 | 0.00 | 69 | 1013.8 |
| 20260503211541 | 59 | 267 | 2.6 | 7.0 | 0.00 | 0.00 | 0.00 | 68 | 1013.8 |
| 20260503211029 | 60 | 295 | 3.5 | 8.7 | 0.00 | 0.00 | 0.00 | 68 | 1013.7 |
| 20260503210531 | 60 | 288 | 4.3 | 8.7 | 0.00 | 0.00 | 0.00 | 67 | 1013.7 |
| 20260503210040 | 60 | 296 | 2.6 | 6.1 | 0.00 | 0.00 | 0.00 | 67 | 1013.6 |
| 20260503205526 | 60 | 294 | 2.6 | 5.2 | 0.00 | 0.00 | 0.00 | 67 | 1013.6 |
| 20260503205025 | 60 | 284 | 2.6 | 5.2 | 0.00 | 0.00 | 0.00 | 66 | 1013.5 |
| 20260503204542 | 60 | 292 | 1.7 | 6.1 | 0.00 | 0.00 | 0.00 | 66 | 1013.4 |
| 20260503204029 | 61 | 289 | 1.7 | 6.1 | 0.00 | 0.00 | 0.00 | 65 | 1013.4 |
| 20260503203530 | 61 | 287 | 2.6 | 7.8 | 0.00 | 0.00 | 0.00 | 65 | 1013.2 |
| 20260503203044 | 61 | 298 | 2.6 | 7.8 | 0.00 | 0.00 | 0.00 | 65 | 1013.1 |
| 20260503202525 | 61 | 284 | 2.6 | 7.0 | 0.00 | 0.00 | 0.00 | 65 | 1013.1 |
| 20260503202025 | 61 | 271 | 1.7 | 3.5 | 0.00 | 0.00 | 0.00 | 65 | 1012.9 |
| 20260503201542 | 61 | 267 | 0.0 | 5.2 | 0.00 | 0.00 | 0.00 | 65 | 1013.0 |
| 20260503201025 | 61 | 266 | 0.0 | 6.1 | 0.00 | 0.00 | 0.00 | 65 | 1013.1 |
| 20260503200524 | 61 | 0 | 0.9 | 6.1 | 0.00 | 0.00 | 0.00 | 65 | 1012.8 |
| 20260503200041 | 61 | 0 | 0.9 | 6.1 | 0.00 | 0.00 | 0.00 | 65 | 1012.8 |
| 20260503195525 | 61 | 236 | 1.7 | 6.1 | 0.00 | 0.00 | 0.00 | 65 | 1012.7 |
| 20260503195029 | 61 | 286 | 1.7 | 6.1 | 0.00 | 0.00 | 0.00 | 66 | 1012.7 |
| 20260503194542 | 61 | 279 | 0.9 | 7.0 | 0.00 | 0.00 | 0.00 | 67 | 1012.7 |
| 20260503194025 | 61 | 289 | 3.5 | 7.0 | 0.00 | 0.00 | 0.00 | 66 | 1012.6 |
| 20260503193528 | 62 | 316 | 3.5 | 7.0 | 0.00 | 0.00 | 0.00 | 66 | 1012.5 |
| 20260503193050 | 62 | 332 | 3.5 | 7.0 | 0.00 | 0.00 | 0.00 | 65 | 1012.5 |
| 20260503192525 | 62 | 317 | 3.5 | 8.7 | 0.00 | 0.00 | 0.00 | 65 | 1012.6 |
| 20260503192026 | 62 | 343 | 2.6 | 8.7 | 0.00 | 0.00 | 0.00 | 64 | 1012.4 |
| 20260503191543 | 62 | 309 | 4.3 | 8.7 | 0.00 | 0.00 | 0.00 | 63 | 1012.4 |
| 20260503191027 | 62 | 300 | 3.5 | 10.4 | 0.00 | 0.00 | 0.00 | 63 | 1012.5 |
| 20260503190524 | 62 | 277 | 5.2 | 10.4 | 0.00 | 0.00 | 0.00 | 63 | 1012.5 |
| 20260503190043 | 62 | 302 | 7.0 | 10.4 | 0.00 | 0.00 | 0.00 | 62 | 1012.4 |
| 20260503185524 | 63 | 281 | 5.2 | 10.4 | 0.00 | 0.00 | 0.00 | 63 | 1012.3 |
| 20260503185025 | 63 | 309 | 6.1 | 10.4 | 0.00 | 0.00 | 0.00 | 64 | 1012.3 |
| 20260503184541 | 63 | 346 | 6.1 | 14.8 | 0.00 | 0.00 | 0.00 | 63 | 1012.3 |
| 20260503184025 | 63 | 307 | 7.0 | 14.8 | 0.00 | 0.00 | 0.00 | 63 | 1012.0 |
| 20260503183528 | 63 | 313 | 8.7 | 14.8 | 0.00 | 0.00 | 0.00 | 62 | 1012.1 |
| 20260503183106 | 64 | 313 | 7.8 | 13.0 | 0.00 | 0.00 | 0.00 | 61 | 1012.1 |
| 20260503182525 | 65 | 324 | 7.8 | 13.9 | 0.00 | 0.00 | 0.00 | 58 | 1012.0 |
| 20260503182028 | 65 | 303 | 7.0 | 13.9 | 0.00 | 0.00 | 0.00 | 58 | 1012.0 |
| 20260503181603 | 65 | 273 | 7.8 | 11.3 | 0.00 | 0.00 | 0.00 | 57 | 1011.9 |
| 20260503181028 | 65 | 300 | 7.0 | 12.2 | 0.00 | 0.00 | 0.00 | 57 | 1011.9 |
| 20260503180528 | 65 | 288 | 5.2 | 12.2 | 0.00 | 0.00 | 0.00 | 57 | 1012.0 |
| 20260503180042 | 65 | 279 | 7.0 | 12.2 | 0.00 | 0.00 | 0.00 | 56 | 1011.9 |
| 20260503175527 | 65 | 282 | 6.1 | 13.0 | 0.00 | 0.00 | 0.00 | 56 | 1012.0 |
| 20260503175028 | 66 | 331 | 7.8 | 13.0 | 0.00 | 0.00 | 0.00 | 55 | 1011.9 |
| 20260503174542 | 66 | 297 | 7.0 | 13.0 | 0.00 | 0.00 | 0.00 | 54 | 1012.0 |
| 20260503174028 | 67 | 302 | 7.8 | 13.0 | 0.00 | 0.00 | 0.00 | 54 | 1011.9 |
| 20260503173528 | 67 | 282 | 5.2 | 12.2 | 0.00 | 0.00 | 0.00 | 55 | 1011.9 |
| 20260503173053 | 67 | 316 | 7.0 | 12.2 | 0.00 | 0.00 | 0.00 | 54 | 1011.9 |
| 20260503172531 | 67 | 304 | 8.7 | 12.2 | 0.00 | 0.00 | 0.00 | 54 | 1011.8 |
| 20260503172031 | 67 | 271 | 5.2 | 10.4 | 0.00 | 0.00 | 0.00 | 55 | 1011.8 |
| 20260503171546 | 66 | 280 | 6.1 | 10.4 | 0.00 | 0.00 | 0.00 | 55 | 1011.9 |
| 20260503171028 | 66 | 293 | 6.1 | 12.2 | 0.00 | 0.00 | 0.00 | 55 | 1011.8 |
| 20260503170529 | 67 | 315 | 4.3 | 12.2 | 0.00 | 0.00 | 0.00 | 55 | 1011.8 |
| 20260503150527 | 70 | 217 | 6.1 | 11.3 | 0.00 | 0.00 | 0.00 | 45 | 1012.1 |
| 20260503131033 | 67 | 245 | 5.2 | 12.2 | 0.00 | 0.00 | 0.00 | 47 | 1013.3 |
| 20260503130527 | 67 | 269 | 4.3 | 12.2 | 0.00 | 0.00 | 0.00 | 47 | 1013.3 |
| 20260503110530 | 65 | 294 | 6.1 | 10.4 | 0.00 | 0.00 | 0.00 | 58 | 1014.3 |